[[{"header":{"parameterUnit":"m.s-1","parameterCategory":2,"la1":30.2991,"la2":30.254,"lo1":-89.0895,"lo2":-89.0444,"dy":0.0017,"dx":0.0017,"nx":28,"ny":28,"refTime":"2024-03-25T09:00:00:Z","depth":"0","parameterNumber":2,"parameterNumberName":"U-component_of_CURRENTS"},"data":[0,0,0,0,0,0,0,0,0,0,0,0,0,0,0,0,0,0,0,0,0,0,0,0,0,0,0,0,0,0,0,0,0,0,0,0,0,0,0,0,0,0,0,0,0,0,0,0,0,0,0,0,0,0,0,0,0,0,-0.2517,-0.2516,0,-0.2408,-0.2406,-0.2404,-0.2362,-0.2363,-0.2364,-0.2364,-0.2194,-0.2189,-0.2184,0,0,0,0,0,0,0,0,0,0,0,0,0,-0.2576,-0.2575,-0.2517,-0.2516,-0.2515,-0.2408,-0.2406,-0.2404,-0.2362,-0.2363,-0.2364,-0.2364,-0.2196,-0.2189,-0.2183,0,0,0,0,0,0,0,0,0,0,0,0,0,-0.2513,-0.2575,-0.2517,-0.2484,-0.248,-0.2408,-0.2406,-0.2404,-0.2362,-0.2363,-0.2364,-0.2365,-0.2198,-0.219,-0.2182,-0.2115,0,0,-0.2159,-0.2155,0,0,0,0,0,0,0,0,-0.2517,-0.2511,-0.249,-0.2486,-0.2482,-0.2403,-0.2364,-0.2305,-0.2362,-0.2403,-0.2364,-0.2365,-0.226,-0.2247,-0.222,-0.2107,-0.21,-0.2158,-0.2153,-0.215,-0.2148,0,0,0,0,0,0,0,-0.2522,-0.2515,-0.247,-0.2488,-0.2484,-0.2436,-0.2429,-0.2352,-0.2323,-0.2399,-0.2397,-0.239,-0.2257,-0.2227,-0.2215,-0.2097,-0.2158,-0.2151,-0.2147,-0.2144,-0.1954,-0.1953,0,0,0,0,0,0,-0.2548,-0.2519,-0.2473,-0.2467,-0.2506,-0.2435,-0.2426,-0.2424,-0.2325,-0.2312,-0.239,-0.2389,-0.224,-0.2224,-0.2209,-0.2162,-0.215,-0.2143,-0.2138,-0.1954,-0.1954,-0.1953,0,0,0,0,0,0,-0.2549,-0.2545,-0.2478,-0.2493,-0.2482,-0.2434,-0.2431,-0.2421,-0.24,-0.2319,-0.2305,-0.238,-0.224,-0.222,-0.2155,-0.2154,-0.2139,-0.2132,-0.1955,-0.1954,-0.1953,-0.2042,0,0,0,0,0,0,-0.2551,-0.2546,-0.2544,-0.2495,-0.2482,-0.2455,-0.243,-0.2419,-0.2396,-0.2394,-0.2306,-0.2291,-0.2239,-0.2167,-0.2147,-0.2143,-0.2126,-0.1955,-0.1954,-0.1953,-0.204,-0.2045,-0.2049,0,0,0,0,0,-0.2554,-0.2558,-0.2544,-0.2538,-0.2484,-0.2456,-0.2445,-0.241,-0.2396,-0.2393,-0.2331,-0.2294,-0.2148,-0.216,-0.2137,-0.213,-0.1955,-0.1954,-0.1954,-0.2038,-0.2044,-0.2049,0,0,0,0,0,0,-0.2574,-0.2552,-0.2537,-0.2531,-0.2505,-0.2451,-0.244,-0.2414,-0.2361,-0.2356,-0.228,-0.226,-0.2207,-0.215,-0.2165,-0.2073,-0.2048,-0.2042,-0.212,-0.2124,-0.2129,-0.2145,-0.212,0,0,0,0,0,-0.258,-0.2579,-0.2548,-0.254,-0.2533,-0.2485,-0.2465,-0.2445,-0.2397,-0.2375,-0.2314,-0.2243,-0.2181,-0.2142,-0.208,-0.2017,-0.1992,-0.2,-0.2004,-0.2009,-0.2005,-0.1969,-0.1971,-0.195,-0.195,-0.195,0,0,-0.2581,-0.257,-0.2566,-0.2544,-0.2517,-0.2506,-0.2475,-0.2457,-0.2441,-0.2361,-0.2315,-0.2257,-0.2169,-0.2114,-0.2084,-0.2068,-0.2007,-0.2007,-0.2012,-0.2006,-0.1969,-0.1971,-0.1973,-0.1949,-0.1949,-0.195,0,0,-0.2588,-0.258,-0.2582,-0.2571,-0.2548,-0.2522,-0.2524,-0.248,-0.2457,-0.2405,-0.2351,-0.2293,-0.219,-0.2134,-0.2089,-0.2073,-0.2038,-0.2056,-0.2082,-0.2048,-0.205,-0.2051,-0.2055,-0.2056,-0.2052,-0.2052,-0.2053,0,-0.2588,-0.2589,-0.2576,-0.2578,-0.257,-0.2537,-0.2537,-0.2506,-0.2444,-0.2418,-0.2406,-0.2263,-0.2197,-0.2122,-0.2123,-0.2084,-0.2075,-0.2074,-0.2057,-0.2057,-0.2057,-0.206,-0.206,-0.2057,-0.2056,-0.2056,-0.2055,0,-0.2593,-0.2599,-0.2602,-0.2597,-0.2588,-0.2585,-0.2557,-0.2535,-0.2502,-0.2463,-0.2395,-0.231,-0.2228,-0.22,-0.2152,-0.2112,-0.2112,-0.2078,-0.2053,-0.2065,-0.2067,-0.2065,-0.2063,-0.2061,-0.206,-0.2059,0,0,-0.2574,-0.2602,-0.26,-0.2611,-0.2602,-0.2596,-0.2579,-0.2545,-0.2528,-0.2468,-0.243,-0.233,-0.2294,-0.2241,-0.2181,-0.2143,-0.2145,-0.2117,-0.2113,-0.2138,-0.2106,-0.2154,-0.2157,-0.2116,-0.2115,-0.2115,-0.2121,0,-0.2575,-0.2601,-0.2607,-0.2621,-0.2633,-0.2615,-0.2606,-0.2574,-0.2534,-0.2491,-0.2408,-0.2353,-0.2308,-0.2275,-0.2233,-0.2151,-0.2139,-0.2148,-0.2072,-0.2071,-0.2126,-0.2155,-0.2239,-0.2255,-0.2119,-0.2118,-0.2118,0,-0.256,-0.2591,-0.2615,-0.2649,-0.2651,-0.2652,-0.2633,-0.262,-0.256,-0.253,-0.2467,-0.2411,-0.2334,-0.2304,-0.2203,-0.2215,-0.2178,-0.2127,-0.2125,-0.2133,-0.2114,-0.221,-0.2256,-0.2263,-0.2115,-0.2115,-0.2115,0,-0.2544,-0.2584,-0.261,-0.262,-0.2653,-0.2652,-0.2657,-0.2621,-0.2616,-0.2553,-0.2541,-0.2447,-0.2398,-0.2325,-0.223,-0.222,-0.2135,-0.2103,-0.2121,-0.2125,-0.2161,-0.2169,-0.2215,-0.2062,-0.2062,-0.2062,-0.2062,0,-0.2536,-0.255,-0.2609,-0.2625,-0.2647,-0.2668,-0.2672,-0.2653,-0.2644,-0.2633,-0.2567,-0.2536,-0.2402,-0.2335,-0.2255,-0.2192,-0.2161,-0.2139,-0.2127,-0.2198,-0.2209,-0.2183,-0.2141,-0.2062,-0.2062,-0.2062,-0.2062,0,-0.2491,-0.2537,-0.2563,-0.262,-0.2637,-0.2643,-0.2693,-0.2705,-0.2699,-0.2682,-0.2672,-0.2599,-0.2515,-0.2408,-0.2279,-0.2235,-0.2156,-0.215,-0.2264,-0.2266,-0.2296,-0.2255,-0.2182,-0.2168,-0.2179,-0.218,-0.2181,0,-0.2467,-0.2481,-0.2542,-0.2572,-0.2595,-0.2632,-0.2667,-0.2704,-0.2722,-0.2715,-0.2706,-0.2645,-0.2576,-0.2439,-0.2356,-0.2267,-0.2203,-0.2306,-0.2294,-0.2327,-0.227,-0.2185,-0.2172,-0.2388,-0.239,-0.2392,-0.2394,0,-0.2408,-0.2423,-0.2454,-0.251,-0.2558,-0.2596,-0.2648,-0.2653,-0.2693,-0.2684,-0.2653,-0.2609,-0.2586,-0.2522,-0.2448,-0.2394,-0.2311,-0.2349,-0.2339,-0.2409,-0.2359,-0.2332,-0.2374,-0.2413,-0.2411,-0.241,-0.2409,-0.2408,-0.2337,-0.2344,-0.2382,-0.2418,-0.2459,-0.2455,-0.2374,-0.2435,-0.2391,-0.2236,-0.2491,-0.2352,-0.2614,-0.2518,-0.2501,-0.2545,-0.2419,-0.2538,-0.248,-0.2386,-0.2388,-0.2496,-0.2542,-0.2541,-0.254,-0.2539,-0.2538,0,-0.225,-0.2265,-0.2295,-0.227,-0.2208,-0.2301,-0.2273,-0.2122,-0.1931,-0.1932,-0.1905,-0.2156,-0.2338,-0.2498,-0.2695,-0.268,-0.2616,-0.2654,-0.2565,-0.2539,-0.2626,-0.2655,-0.2782,-0.2782,-0.2782,-0.2782,-0.2782,-0.2782,-0.2203,-0.2192,-0.2203,-0.2014,-0.1969,-0.1763,-0.1668,-0.149,-0.1385,-0.1196,-0.1206,-0.1339,-0.1862,-0.252,-0.2745,-0.2736,-0.2633,-0.2629,-0.2529,-0.2629,-0.2614,-0.2599,-0.2621,-0.2738,-0.2738,-0.2483,-0.2481,-0.2479]},{"header":{"parameterUnit":"m.s-1","parameterCategory":2,"la1":30.2991,"la2":30.254,"lo1":-89.0895,"lo2":-89.0444,"dy":0.0017,"dx":0.0017,"nx":28,"ny":28,"refTime":"2024-03-25T09:00:00:Z","depth":"0","parameterNumber":3,"parameterNumberName":"V-component_of_CURRENTS"},"data":[0,0,0,0,0,0,0,0,0,0,0,0,0,0,0,0,0,0,0,0,0,0,0,0,0,0,0,0,0,0,0,0,0,0,0,0,0,0,0,0,0,0,0,0,0,0,0,0,0,0,0,0,0,0,0,0,0,0,-0.0181,-0.018,0,-0.0104,-0.0103,-0.0102,-0.0083,-0.0084,-0.0084,-0.0085,-0.0026,-0.0023,-0.0021,0,0,0,0,0,0,0,0,0,0,0,0,0,-0.0262,-0.0261,-0.0181,-0.018,-0.0179,-0.0104,-0.0103,-0.0102,-0.0083,-0.0084,-0.0085,-0.0085,-0.0026,-0.0024,-0.0021,0,0,0,0,0,0,0,0,0,0,0,0,0,-0.0209,-0.0261,-0.0181,-0.0162,-0.016,-0.0104,-0.0103,-0.0101,-0.0083,-0.0084,-0.0085,-0.0086,-0.0027,-0.0024,-0.0021,0.002,0,0,-0.0011,-0.0009,0,0,0,0,0,0,0,0,-0.0212,-0.0206,-0.0166,-0.0163,-0.0161,-0.0106,-0.011,-0.0062,-0.0083,-0.011,-0.0085,-0.0086,-0.0054,-0.0049,-0.0029,0.0022,0.0025,-0.001,-0.0008,-0.0007,-0.0006,0,0,0,0,0,0,0,-0.0216,-0.0209,-0.0149,-0.0165,-0.0162,-0.0141,-0.0134,-0.01,-0.0077,-0.0108,-0.0107,-0.0101,-0.0053,-0.0033,-0.0028,0.0026,-0.001,-0.0007,-0.0005,-0.0004,0.0114,0.0115,0,0,0,0,0,0,-0.023,-0.0212,-0.0151,-0.0147,-0.0191,-0.0139,-0.0132,-0.0121,-0.0077,-0.0071,-0.01,-0.01,-0.0038,-0.0032,-0.0026,0.0025,-0.0007,-0.0004,-0.0002,0.0113,0.0115,0.0116,0,0,0,0,0,0,-0.0232,-0.0225,-0.0154,-0.0179,-0.0169,-0.0137,-0.0124,-0.0119,-0.0103,-0.0071,-0.0065,-0.0091,-0.0038,-0.0031,0.001,0.0027,-0.0002,0.0001,0.0112,0.0114,0.0115,0.0126,0,0,0,0,0,0,-0.0234,-0.0226,-0.0225,-0.018,-0.0168,-0.0125,-0.0124,-0.0117,-0.0099,-0.0098,-0.0061,-0.0056,-0.0039,0.0005,0.0013,0.0031,0.0003,0.011,0.0113,0.0115,0.0124,0.0128,0.0131,0,0,0,0,0,-0.0237,-0.0236,-0.0226,-0.0219,-0.0168,-0.0125,-0.0117,-0.0096,-0.0097,-0.0086,-0.0057,-0.0058,0.0024,0.0009,0.0018,0.0037,0.0109,0.0112,0.0114,0.0122,0.0127,0.0131,0,0,0,0,0,0,-0.0274,-0.0232,-0.0221,-0.0207,-0.017,-0.0123,-0.0115,-0.0096,-0.0063,-0.0065,-0.0038,-0.003,0.0011,0.0026,0.0008,0.0078,0.0065,0.007,0.0068,0.0072,0.0076,0.0067,0.0006,0,0,0,0,0,-0.0281,-0.0269,-0.0221,-0.0212,-0.0194,-0.0153,-0.0135,-0.0116,-0.008,-0.0067,-0.0039,-0.0006,0.0032,0.0051,0.0084,0.0126,0.0144,0.0144,0.0147,0.015,0.015,0.0193,0.02,0.0124,0.0124,0.0124,0,0,-0.0297,-0.027,-0.0266,-0.0219,-0.019,-0.0162,-0.0145,-0.0117,-0.0091,-0.0065,-0.0027,0.0006,0.0046,0.0093,0.0112,0.0106,0.0184,0.0153,0.0155,0.0154,0.0196,0.0203,0.021,0.0126,0.0126,0.0126,0,0,-0.0321,-0.0293,-0.0291,-0.0255,-0.0211,-0.0175,-0.0168,-0.0115,-0.0092,-0.0046,-0.0018,0.0027,0.0078,0.012,0.0144,0.0188,0.0199,0.0195,0.0209,0.025,0.0257,0.0262,0.0304,0.0314,0.0198,0.0198,0.0198,0,-0.0346,-0.0329,-0.0284,-0.0264,-0.0237,-0.0183,-0.0165,-0.0124,-0.0065,-0.0036,-0.0039,0.0064,0.0092,0.0166,0.018,0.0196,0.0219,0.0188,0.0254,0.026,0.0265,0.0307,0.0317,0.0199,0.0199,0.0199,0.0199,0,-0.0363,-0.0344,-0.0337,-0.0291,-0.0251,-0.0227,-0.0159,-0.0118,-0.0084,-0.004,0.0033,0.0087,0.0147,0.0168,0.0187,0.0252,0.0256,0.0251,0.0239,0.0273,0.0316,0.0326,0.02,0.02,0.02,0.0199,0,0,-0.0435,-0.0367,-0.0366,-0.0344,-0.0263,-0.0233,-0.0172,-0.0101,-0.0059,0.0001,0.006,0.0134,0.0168,0.02,0.024,0.028,0.0343,0.028,0.0282,0.0315,0.0439,0.0547,0.0568,0.0347,0.0348,0.0349,0.0455,0,-0.0467,-0.0457,-0.0392,-0.0359,-0.0346,-0.025,-0.0193,-0.0115,-0.0049,0.0025,0.0101,0.0168,0.0181,0.0219,0.0262,0.0328,0.0369,0.0315,0.0407,0.041,0.0496,0.0584,0.0739,0.0857,0.0466,0.0467,0.0469,0,-0.0509,-0.0493,-0.0483,-0.0392,-0.0372,-0.033,-0.0221,-0.0162,-0.0035,0.0022,0.0109,0.0175,0.0273,0.0263,0.0387,0.0352,0.0393,0.0432,0.0437,0.054,0.0538,0.0759,0.089,0.104,0.0484,0.0483,0.0482,0,-0.0607,-0.0547,-0.0545,-0.0519,-0.0412,-0.037,-0.0303,-0.0177,-0.0104,0.0022,0.0099,0.0203,0.0287,0.0344,0.0447,0.0416,0.0575,0.054,0.0675,0.0682,0.0836,0.0855,0.112,0.0612,0.0611,0.0611,0.0611,0,-0.0671,-0.0662,-0.0594,-0.0592,-0.0562,-0.0448,-0.0381,-0.0293,-0.0141,-0.0025,0.0085,0.022,0.0311,0.0428,0.0471,0.0636,0.0599,0.0707,0.0732,0.0847,0.0865,0.1016,0.1013,0.0615,0.0614,0.0613,0.0613,0,-0.0774,-0.0735,-0.0724,-0.0639,-0.0614,-0.0594,-0.044,-0.037,-0.0215,-0.0054,0.0,0.0239,0.0432,0.0524,0.0655,0.0707,0.0908,0.0865,0.1001,0.1042,0.131,0.1299,0.1484,0.1497,0.1044,0.1047,0.105,0,-0.0823,-0.0838,-0.0794,-0.0792,-0.0754,-0.0697,-0.0634,-0.0454,-0.0341,-0.0011,0.0082,0.0335,0.0573,0.0823,0.095,0.1081,0.1085,0.1272,0.1245,0.1392,0.1396,0.1332,0.132,0.145,0.1456,0.1461,0.1465,0,-0.091,-0.09,-0.0897,-0.0909,-0.0868,-0.0782,-0.066,-0.0573,-0.03,-0.012,0.0245,0.0479,0.0837,0.1174,0.1336,0.1372,0.1395,0.1378,0.1508,0.1738,0.1708,0.171,0.1295,0.1509,0.1505,0.1501,0.1499,0.1497,-0.0972,-0.1003,-0.1004,-0.0991,-0.0943,-0.0813,-0.0737,-0.0554,-0.0338,0.0025,0.0348,0.0785,0.1363,0.1678,0.1711,0.1928,0.1723,0.2015,0.1988,0.1908,0.1945,0.1632,0.1882,0.188,0.1878,0.1877,0.1875,0,-0.1027,-0.1043,-0.1066,-0.1006,-0.0909,-0.0873,-0.07,-0.0554,-0.0299,0.0056,0.0467,0.1335,0.1841,0.2172,0.254,0.2591,0.2446,0.2588,0.2557,0.2505,0.2267,0.2316,0.2701,0.2701,0.27,0.27,0.27,0.27,-0.1056,-0.109,-0.1083,-0.0947,-0.0883,-0.0741,-0.0637,-0.0428,-0.0175,0.0411,0.0905,0.1373,0.2015,0.2856,0.3177,0.3112,0.3052,0.3049,0.2933,0.2836,0.278,0.2727,0.2781,0.3256,0.3257,0.3206,0.3206,0.3207]}],[{"header":{"parameterUnit":"m.s-1","parameterCategory":2,"la1":30.2991,"la2":30.254,"lo1":-89.0895,"lo2":-89.0444,"dy":0.0017,"dx":0.0017,"nx":28,"ny":28,"refTime":"2024-03-25T09:00:00:Z","depth":"2","parameterNumber":2,"parameterNumberName":"U-component_of_CURRENTS"},"data":[0,0,0,0,0,0,0,0,0,0,0,0,0,0,0,0,0,0,0,0,0,0,0,0,0,0,0,0,0,0,0,0,0,0,0,0,0,0,0,0,0,0,0,0,0,0,0,0,0,0,0,0,0,0,0,0,0,0,-0.247,-0.2469,0,-0.2363,-0.2361,-0.2359,-0.2318,-0.2319,-0.232,-0.232,-0.2151,-0.2147,-0.2141,0,0,0,0,0,0,0,0,0,0,0,0,0,-0.2529,-0.2528,-0.247,-0.2469,-0.2468,-0.2363,-0.2361,-0.2359,-0.2318,-0.2319,-0.232,-0.2321,-0.2153,-0.2147,-0.2141,0,0,0,0,0,0,0,0,0,0,0,0,0,-0.2467,-0.2528,-0.2471,-0.2438,-0.2434,-0.2363,-0.2361,-0.2359,-0.2318,-0.2319,-0.232,-0.2321,-0.2155,-0.2148,-0.214,-0.2072,0,0,-0.2117,-0.2113,0,0,0,0,0,0,0,0,-0.2471,-0.2465,-0.2444,-0.244,-0.2436,-0.2358,-0.232,-0.2261,-0.2318,-0.2358,-0.232,-0.2321,-0.2217,-0.2204,-0.2177,-0.2064,-0.2057,-0.2116,-0.2111,-0.2108,-0.2106,0,0,0,0,0,0,0,-0.2475,-0.2468,-0.2424,-0.2443,-0.2438,-0.2391,-0.2384,-0.2308,-0.2279,-0.2355,-0.2352,-0.2346,-0.2214,-0.2184,-0.2172,-0.2055,-0.2116,-0.2109,-0.2105,-0.2102,-0.1912,-0.1912,0,0,0,0,0,0,-0.2501,-0.2473,-0.2427,-0.2421,-0.2461,-0.239,-0.2382,-0.2379,-0.2281,-0.2269,-0.2346,-0.2345,-0.2197,-0.2182,-0.2166,-0.212,-0.2108,-0.2101,-0.2096,-0.1913,-0.1912,-0.1912,0,0,0,0,0,0,-0.2503,-0.2498,-0.2432,-0.2447,-0.2436,-0.2389,-0.2385,-0.2376,-0.2356,-0.2275,-0.2261,-0.2337,-0.2197,-0.2177,-0.2113,-0.2112,-0.2097,-0.209,-0.1913,-0.1913,-0.1912,-0.2001,0,0,0,0,0,0,-0.2505,-0.2499,-0.2498,-0.2449,-0.2436,-0.241,-0.2385,-0.2374,-0.2352,-0.235,-0.2262,-0.2248,-0.2196,-0.2125,-0.2105,-0.2101,-0.2084,-0.1914,-0.1913,-0.1912,-0.1999,-0.2003,-0.2008,0,0,0,0,0,-0.2507,-0.2511,-0.2498,-0.2492,-0.2439,-0.2411,-0.2399,-0.2366,-0.2351,-0.2349,-0.2288,-0.2251,-0.2106,-0.2118,-0.2095,-0.2089,-0.1914,-0.1913,-0.1912,-0.1996,-0.2002,-0.2007,0,0,0,0,0,0,-0.2528,-0.2506,-0.2491,-0.2485,-0.2459,-0.2406,-0.2394,-0.237,-0.2317,-0.2312,-0.2237,-0.2217,-0.2165,-0.2108,-0.2123,-0.2031,-0.2006,-0.2,-0.2078,-0.2082,-0.2087,-0.2103,-0.2078,0,0,0,0,0,-0.2534,-0.2533,-0.2502,-0.2494,-0.2487,-0.2439,-0.242,-0.2401,-0.2352,-0.2331,-0.2271,-0.2201,-0.2138,-0.21,-0.2038,-0.1976,-0.195,-0.1958,-0.1963,-0.1967,-0.1964,-0.1928,-0.193,-0.1909,-0.1909,-0.1909,0,0,-0.2535,-0.2524,-0.252,-0.2498,-0.2471,-0.2461,-0.243,-0.2412,-0.2396,-0.2317,-0.2272,-0.2215,-0.2127,-0.2072,-0.2042,-0.2026,-0.1965,-0.1966,-0.1971,-0.1965,-0.1927,-0.193,-0.1932,-0.1908,-0.1908,-0.1908,0,0,-0.2542,-0.2534,-0.2536,-0.2525,-0.2502,-0.2477,-0.2479,-0.2436,-0.2413,-0.2361,-0.2307,-0.2251,-0.2148,-0.2092,-0.2047,-0.2032,-0.1997,-0.2015,-0.204,-0.2007,-0.2009,-0.201,-0.2014,-0.2014,-0.2011,-0.2011,-0.2011,0,-0.2542,-0.2543,-0.253,-0.2532,-0.2524,-0.2492,-0.2491,-0.2461,-0.24,-0.2374,-0.2362,-0.2221,-0.2155,-0.208,-0.2082,-0.2042,-0.2033,-0.2033,-0.2016,-0.2016,-0.2016,-0.2019,-0.2019,-0.2015,-0.2015,-0.2014,-0.2014,0,-0.2547,-0.2553,-0.2556,-0.2551,-0.2542,-0.2539,-0.2511,-0.249,-0.2458,-0.2419,-0.2352,-0.2267,-0.2186,-0.2158,-0.211,-0.207,-0.2071,-0.2036,-0.2011,-0.2024,-0.2026,-0.2024,-0.2021,-0.202,-0.2018,-0.2017,0,0,-0.2528,-0.2556,-0.2554,-0.2565,-0.2556,-0.255,-0.2533,-0.25,-0.2483,-0.2424,-0.2386,-0.2286,-0.2252,-0.2199,-0.2139,-0.2101,-0.2103,-0.2075,-0.2072,-0.2097,-0.2064,-0.2113,-0.2115,-0.2074,-0.2074,-0.2073,-0.208,0,-0.2529,-0.2555,-0.2561,-0.2575,-0.2587,-0.2569,-0.256,-0.2528,-0.2489,-0.2447,-0.2365,-0.231,-0.2265,-0.2233,-0.2191,-0.2109,-0.2097,-0.2107,-0.2031,-0.2029,-0.2085,-0.2113,-0.1868,-0.1857,-0.2078,-0.2077,-0.2077,0,-0.2514,-0.2545,-0.2569,-0.2602,-0.2605,-0.2606,-0.2588,-0.2574,-0.2516,-0.2486,-0.2424,-0.2368,-0.2292,-0.2262,-0.2161,-0.2174,-0.2137,-0.2086,-0.2084,-0.2092,-0.2073,-0.187,-0.1845,-0.2074,-0.2074,-0.2074,-0.2074,0,-0.2498,-0.2539,-0.2564,-0.2574,-0.2607,-0.2607,-0.2611,-0.2576,-0.2571,-0.2509,-0.2498,-0.2404,-0.2356,-0.2284,-0.2189,-0.2179,-0.2094,-0.2062,-0.208,-0.2084,-0.184,-0.1824,-0.2021,-0.2021,-0.2021,-0.2021,-0.2021,0,-0.249,-0.2505,-0.2564,-0.258,-0.2602,-0.2623,-0.2628,-0.2609,-0.2601,-0.259,-0.2524,-0.2494,-0.236,-0.2293,-0.2214,-0.2151,-0.212,-0.2098,-0.2086,-0.187,-0.1857,-0.2001,-0.1999,-0.2021,-0.2021,-0.2021,-0.2021,0,-0.2446,-0.2492,-0.2519,-0.2575,-0.2593,-0.2599,-0.265,-0.2662,-0.2656,-0.264,-0.263,-0.2558,-0.2475,-0.2367,-0.2239,-0.2195,-0.2116,-0.211,-0.1894,-0.1859,-0.213,-0.2132,-0.2135,-0.2137,-0.2139,-0.214,-0.2141,0,-0.2423,-0.2436,-0.2498,-0.2528,-0.2552,-0.2589,-0.2624,-0.2662,-0.268,-0.2674,-0.2666,-0.2605,-0.2516,-0.2379,-0.22,-0.2082,-0.2166,-0.1924,-0.1865,-0.2153,-0.214,-0.214,-0.214,-0.1572,-0.1568,-0.1565,-0.1563,0,-0.2364,-0.2379,-0.2411,-0.2468,-0.2516,-0.2554,-0.2607,-0.2612,-0.2652,-0.2636,-0.2607,-0.2543,-0.2419,-0.2148,-0.2034,-0.1945,-0.1918,-0.187,-0.2161,-0.1622,-0.1632,-0.1618,-0.1633,-0.1535,-0.1538,-0.154,-0.1542,-0.1543,-0.2294,-0.2301,-0.234,-0.2378,-0.242,-0.2416,-0.2333,-0.2387,-0.2335,-0.216,-0.2358,-0.2103,-0.2156,-0.173,-0.1707,-0.1638,-0.1766,-0.1715,-0.1718,-0.1725,-0.17,-0.1716,-0.1631,-0.1634,-0.1637,-0.1639,-0.1641,0,-0.2152,-0.2225,-0.2256,-0.2232,-0.2104,-0.2264,-0.2234,-0.2063,-0.1853,-0.1805,-0.1692,-0.1462,-0.1332,-0.1378,-0.1189,-0.129,-0.1187,-0.1324,-0.1153,-0.118,-0.1205,-0.1147,-0.0935,-0.0933,-0.0932,-0.0931,0,0,-0.2091,-0.2048,-0.2058,-0.1839,-0.1853,-0.1668,-0.1571,-0.1391,-0.1231,-0.0943,-0.0774,-0.0851,-0.1097,-0.0856,-0.0976,-0.0895,-0.0982,-0.085,-0.1395,-0.1196,-0.1217,-0.1407,-0.135,0,0,0,0,0]},{"header":{"parameterUnit":"m.s-1","parameterCategory":2,"la1":30.2991,"la2":30.254,"lo1":-89.0895,"lo2":-89.0444,"dy":0.0017,"dx":0.0017,"nx":28,"ny":28,"refTime":"2024-03-25T09:00:00:Z","depth":"2","parameterNumber":3,"parameterNumberName":"V-component_of_CURRENTS"},"data":[0,0,0,0,0,0,0,0,0,0,0,0,0,0,0,0,0,0,0,0,0,0,0,0,0,0,0,0,0,0,0,0,0,0,0,0,0,0,0,0,0,0,0,0,0,0,0,0,0,0,0,0,0,0,0,0,0,0,-0.0206,-0.0205,0,-0.013,-0.0129,-0.0128,-0.0109,-0.0109,-0.011,-0.0111,-0.0051,-0.0049,-0.0047,0,0,0,0,0,0,0,0,0,0,0,0,0,-0.0287,-0.0285,-0.0206,-0.0205,-0.0204,-0.013,-0.0129,-0.0127,-0.0109,-0.0109,-0.011,-0.0111,-0.0052,-0.0049,-0.0047,0,0,0,0,0,0,0,0,0,0,0,0,0,-0.0234,-0.0285,-0.0206,-0.0187,-0.0185,-0.013,-0.0129,-0.0127,-0.0108,-0.0109,-0.011,-0.0111,-0.0053,-0.005,-0.0046,-0.0007,0,0,-0.0036,-0.0035,0,0,0,0,0,0,0,0,-0.0237,-0.0231,-0.0191,-0.0189,-0.0186,-0.0131,-0.0135,-0.0088,-0.0108,-0.0136,-0.0111,-0.0112,-0.008,-0.0074,-0.0055,-0.0004,-0.0001,-0.0036,-0.0034,-0.0033,-0.0032,0,0,0,0,0,0,0,-0.0241,-0.0233,-0.0174,-0.019,-0.0187,-0.0166,-0.016,-0.0126,-0.0102,-0.0133,-0.0132,-0.0126,-0.0079,-0.0058,-0.0054,-0.0001,-0.0036,-0.0033,-0.0031,-0.003,0.0088,0.0089,0,0,0,0,0,0,-0.0254,-0.0237,-0.0177,-0.0172,-0.0216,-0.0164,-0.0157,-0.0146,-0.0102,-0.0097,-0.0125,-0.0126,-0.0064,-0.0058,-0.0052,-0.0001,-0.0033,-0.003,-0.0028,0.0087,0.0088,0.0089,0,0,0,0,0,0,-0.0256,-0.025,-0.018,-0.0205,-0.0194,-0.0162,-0.015,-0.0144,-0.0129,-0.0096,-0.0091,-0.0117,-0.0064,-0.0056,-0.0016,0.0001,-0.0028,-0.0025,0.0085,0.0087,0.0089,0.01,0,0,0,0,0,0,-0.0259,-0.0251,-0.025,-0.0205,-0.0194,-0.0151,-0.0149,-0.0142,-0.0124,-0.0124,-0.0087,-0.0082,-0.0064,-0.0021,-0.0013,0.0005,-0.0023,0.0084,0.0086,0.0088,0.0098,0.0102,0.0105,0,0,0,0,0,-0.0262,-0.0261,-0.025,-0.0243,-0.0193,-0.0151,-0.0142,-0.0122,-0.0123,-0.0112,-0.0083,-0.0083,-0.0002,-0.0017,-0.0008,0.0012,0.0083,0.0086,0.0088,0.0097,0.0101,0.0105,0,0,0,0,0,0,-0.0299,-0.0257,-0.0245,-0.0232,-0.0196,-0.0148,-0.014,-0.0122,-0.0088,-0.0091,-0.0063,-0.0055,-0.0015,0.0,-0.0018,0.0052,0.0039,0.0044,0.0042,0.0047,0.005,0.0042,-0.002,0,0,0,0,0,-0.0305,-0.0293,-0.0246,-0.0237,-0.0219,-0.0178,-0.0161,-0.0141,-0.0106,-0.0093,-0.0064,-0.0032,0.0007,0.0026,0.0058,0.01,0.0118,0.0118,0.0121,0.0124,0.0124,0.0167,0.0174,0.0098,0.0098,0.0098,0,0,-0.0321,-0.0294,-0.029,-0.0244,-0.0215,-0.0187,-0.017,-0.0142,-0.0116,-0.009,-0.0052,-0.0019,0.002,0.0067,0.0086,0.008,0.0158,0.0127,0.0129,0.0128,0.017,0.0178,0.0184,0.01,0.01,0.0099,0,0,-0.0345,-0.0317,-0.0315,-0.028,-0.0235,-0.0199,-0.0193,-0.014,-0.0116,-0.007,-0.0043,0.0002,0.0053,0.0094,0.0119,0.0163,0.0174,0.017,0.0184,0.0226,0.0232,0.0238,0.028,0.0289,0.0173,0.0173,0.0173,0,-0.037,-0.0353,-0.0308,-0.0288,-0.0262,-0.0207,-0.019,-0.0148,-0.009,-0.006,-0.0064,0.0039,0.0068,0.0141,0.0156,0.0171,0.0193,0.0163,0.0229,0.0235,0.0241,0.0282,0.0293,0.0174,0.0174,0.0174,0.0174,0,-0.0386,-0.0368,-0.036,-0.0315,-0.0275,-0.0251,-0.0183,-0.0142,-0.0107,-0.0064,0.0009,0.0063,0.0123,0.0144,0.0163,0.0228,0.0232,0.0226,0.0214,0.0249,0.0291,0.0301,0.0175,0.0175,0.0175,0.0174,0,0,-0.0458,-0.039,-0.0389,-0.0367,-0.0286,-0.0256,-0.0196,-0.0124,-0.0083,-0.0022,0.0036,0.0111,0.0145,0.0176,0.0217,0.0256,0.0319,0.0256,0.0258,0.0291,0.0415,0.0521,0.0542,0.0323,0.0325,0.0326,0.0431,0,-0.049,-0.0479,-0.0415,-0.0382,-0.0368,-0.0273,-0.0216,-0.0139,-0.0072,0.0002,0.0077,0.0144,0.0157,0.0196,0.0239,0.0305,0.0346,0.0291,0.0383,0.0386,0.047,0.0558,0.0332,0.0417,0.0442,0.0443,0.0445,0,-0.0531,-0.0516,-0.0506,-0.0415,-0.0395,-0.0353,-0.0244,-0.0185,-0.0058,-0.0001,0.0086,0.0152,0.025,0.024,0.0364,0.0329,0.037,0.0409,0.0414,0.0514,0.0512,0.0386,0.0435,0.0462,0.046,0.0459,0.0458,0,-0.0629,-0.0569,-0.0567,-0.0541,-0.0434,-0.0392,-0.0325,-0.02,-0.0127,-0.0001,0.0075,0.018,0.0264,0.0321,0.0424,0.0393,0.0551,0.0516,0.065,0.0657,0.0486,0.0477,0.0588,0.0588,0.0588,0.0588,0.0587,0,-0.0693,-0.0684,-0.0616,-0.0613,-0.0584,-0.047,-0.0404,-0.0315,-0.0164,-0.0049,0.0062,0.0196,0.0287,0.0405,0.0447,0.0611,0.0575,0.0682,0.0706,0.0489,0.048,0.0525,0.0516,0.0592,0.0591,0.059,0.0589,0,-0.0795,-0.0756,-0.0745,-0.066,-0.0635,-0.0616,-0.0462,-0.0393,-0.0239,-0.0078,-0.0024,0.0214,0.0406,0.0499,0.0629,0.0681,0.0787,0.0838,0.0593,0.0591,0.085,0.0841,0.1006,0.1011,0.1015,0.1019,0.1022,0,-0.0844,-0.0859,-0.0814,-0.0813,-0.0776,-0.0718,-0.0656,-0.0477,-0.0365,-0.0036,0.0056,0.0308,0.0518,0.0768,0.0787,0.0885,0.0941,0.0846,0.0768,0.0894,0.09,0.0884,0.0869,0.0524,0.0523,0.0522,0.0521,0,-0.0931,-0.0921,-0.0918,-0.093,-0.0889,-0.0805,-0.0684,-0.0598,-0.0326,-0.0157,0.0207,0.0412,0.0655,0.0731,0.0847,0.0865,0.0813,0.084,0.1014,0.0495,0.046,0.046,0.0456,0.0511,0.0512,0.0513,0.0513,0.0513,-0.0992,-0.1023,-0.1024,-0.1012,-0.0965,-0.0837,-0.0763,-0.0592,-0.039,-0.0064,0.0138,0.0378,0.0546,0.0619,0.0722,0.0769,0.0816,0.0809,0.0802,0.0798,0.0766,0.0745,0.0841,0.0844,0.0847,0.0849,0.0851,0,-0.106,-0.1063,-0.1087,-0.1027,-0.0984,-0.0896,-0.0727,-0.0605,-0.038,-0.0114,0.0126,0.0166,0.0238,0.0459,0.0467,0.0598,0.0455,0.0674,0.0433,0.0441,0.0448,0.0389,0.037,0.037,0.037,0.0371,0,0,-0.1092,-0.1139,-0.1133,-0.1051,-0.0969,-0.0827,-0.0725,-0.0526,-0.0355,-0.0098,0.0004,0.003,0.0274,0.0202,0.0305,0.0376,0.0397,0.0355,0.0704,0.0412,0.042,0.0464,0.0378,0,0,0,0,0]}],[{"header":{"parameterUnit":"m.s-1","parameterCategory":2,"la1":30.2991,"la2":30.254,"lo1":-89.0895,"lo2":-89.0444,"dy":0.0017,"dx":0.0017,"nx":28,"ny":28,"refTime":"2024-03-25T09:00:00:Z","depth":"4","parameterNumber":2,"parameterNumberName":"U-component_of_CURRENTS"},"data":[0,0,0,0,0,0,0,0,0,0,0,0,0,0,0,0,0,0,0,0,0,0,0,0,0,0,0,0,0,0,0,0,0,0,0,0,0,0,0,0,0,0,0,0,0,0,0,0,0,0,0,0,0,0,0,0,0,0,-0.1015,-0.1015,0,-0.0993,-0.0993,-0.0992,-0.0989,-0.099,-0.099,-0.0991,-0.092,-0.0917,-0.0915,0,0,0,0,0,0,0,0,0,0,0,0,0,-0.1,-0.1,-0.1015,-0.1015,-0.1015,-0.0993,-0.0993,-0.0992,-0.0989,-0.099,-0.099,-0.0991,-0.092,-0.0918,-0.0915,0,0,0,0,0,0,0,0,0,0,0,0,0,-0.0992,-0.1,-0.1015,-0.1014,-0.1014,-0.0993,-0.0993,-0.0992,-0.0989,-0.099,-0.099,-0.0991,-0.0921,-0.0918,-0.0914,-0.0877,0,0,-0.0903,-0.0902,0,0,0,0,0,0,0,0,-0.0992,-0.0992,-0.1014,-0.1014,-0.1014,-0.0998,-0.0962,-0.0952,-0.0989,-0.0994,-0.0991,-0.0992,-0.0943,-0.0938,-0.0927,-0.0873,-0.087,-0.0903,-0.0901,-0.0899,-0.0898,0,0,0,0,0,0,0,-0.0993,-0.0993,-0.1003,-0.1014,-0.1014,-0.0996,-0.0996,-0.0959,-0.0961,-0.0994,-0.0995,-0.0998,-0.0942,-0.0931,-0.0926,-0.0869,-0.0903,-0.09,-0.0898,-0.0896,-0.0827,-0.0827,0,0,0,0,0,0,-0.1005,-0.0994,-0.1004,-0.1003,-0.1009,-0.0996,-0.0995,-0.0999,-0.0962,-0.0959,-0.0997,-0.0998,-0.0937,-0.093,-0.0923,-0.0944,-0.0899,-0.0896,-0.0894,-0.0827,-0.0827,-0.0827,0,0,0,0,0,0,-0.1005,-0.1006,-0.1005,-0.1,-0.0999,-0.0996,-0.1,-0.0998,-0.101,-0.0966,-0.0961,-0.1013,-0.0937,-0.0928,-0.0914,-0.0939,-0.0895,-0.0891,-0.0826,-0.0827,-0.0827,-0.0942,0,0,0,0,0,0,-0.1004,-0.1006,-0.1019,-0.1001,-0.1,-0.1014,-0.0999,-0.0998,-0.1011,-0.1012,-0.0977,-0.097,-0.0937,-0.092,-0.0911,-0.0933,-0.0888,-0.0826,-0.0827,-0.0827,-0.0937,-0.0946,-0.0953,0,0,0,0,0,-0.1004,-0.1019,-0.102,-0.1021,-0.1016,-0.1016,-0.1014,-0.101,-0.1011,-0.1022,-0.1,-0.0973,-0.0917,-0.0917,-0.0906,-0.0928,-0.0826,-0.0826,-0.0827,-0.0934,-0.0944,-0.0953,0,0,0,0,0,0,-0.1015,-0.102,-0.102,-0.1036,-0.1037,-0.1017,-0.103,-0.1024,-0.1014,-0.1022,-0.0976,-0.0967,-0.0964,-0.0924,-0.0926,-0.0907,-0.0866,-0.0865,-0.0951,-0.096,-0.0968,-0.0975,-0.0886,0,0,0,0,0,-0.1025,-0.1042,-0.1037,-0.1052,-0.1058,-0.1047,-0.105,-0.105,-0.1037,-0.1035,-0.1013,-0.0982,-0.0952,-0.0942,-0.0909,-0.0898,-0.0867,-0.0903,-0.0911,-0.0918,-0.0914,-0.0888,-0.0894,-0.083,-0.083,-0.083,0,0,-0.1032,-0.1039,-0.1048,-0.1057,-0.1057,-0.1075,-0.1051,-0.1069,-0.1083,-0.1026,-0.1043,-0.101,-0.0954,-0.0948,-0.0942,-0.0923,-0.0924,-0.0918,-0.0925,-0.0917,-0.089,-0.0896,-0.0902,-0.083,-0.083,-0.083,0,0,-0.1055,-0.1065,-0.1088,-0.1098,-0.1114,-0.1109,-0.1122,-0.1121,-0.1124,-0.1129,-0.1092,-0.1075,-0.1037,-0.1004,-0.0978,-0.1004,-0.0966,-0.0998,-0.1046,-0.1023,-0.1028,-0.1032,-0.103,-0.1033,-0.1003,-0.1003,-0.1004,0,-0.1064,-0.1093,-0.1093,-0.112,-0.1137,-0.1132,-0.116,-0.1159,-0.1155,-0.1156,-0.1152,-0.1098,-0.106,-0.1035,-0.1049,-0.1024,-0.1011,-0.1022,-0.1036,-0.1039,-0.1041,-0.1037,-0.1039,-0.1009,-0.1008,-0.1008,-0.1007,0,-0.1096,-0.1133,-0.115,-0.1184,-0.1199,-0.1226,-0.123,-0.1248,-0.1254,-0.1243,-0.1236,-0.1185,-0.1151,-0.114,-0.1103,-0.11,-0.1088,-0.1052,-0.102,-0.1055,-0.1048,-0.1048,-0.1017,-0.1015,-0.1013,-0.1012,0,0,-0.1078,-0.1159,-0.1166,-0.1205,-0.1241,-0.1255,-0.1289,-0.1305,-0.1325,-0.1317,-0.1324,-0.128,-0.1257,-0.1224,-0.118,-0.1158,-0.1177,-0.1124,-0.112,-0.1136,-0.1149,-0.1108,-0.1103,-0.1153,-0.1153,-0.1153,-0.1148,0,-0.1103,-0.1176,-0.1205,-0.1275,-0.1312,-0.1334,-0.1364,-0.1379,-0.1381,-0.1387,-0.1339,-0.1328,-0.1287,-0.128,-0.1254,-0.1184,-0.1178,-0.1183,-0.1097,-0.1095,-0.1066,-0.1101,-0.1152,-0.1147,-0.1147,-0.1147,-0.1147,0,-0.1109,-0.1167,-0.1243,-0.1335,-0.1353,-0.1395,-0.1444,-0.1468,-0.1469,-0.1472,-0.1454,-0.1413,-0.1378,-0.1338,-0.1264,-0.1274,-0.1227,-0.1177,-0.1175,-0.1091,-0.1052,-0.1093,-0.1146,-0.1146,-0.1146,-0.1147,-0.1147,0,-0.1079,-0.1186,-0.1254,-0.1284,-0.1381,-0.1424,-0.1468,-0.1493,-0.1515,-0.1521,-0.1532,-0.1484,-0.1458,-0.1393,-0.1298,-0.1289,-0.1212,-0.1182,-0.1106,-0.1104,-0.1093,-0.1088,-0.1141,-0.1141,-0.1141,-0.1141,-0.1141,0,-0.1073,-0.1129,-0.1258,-0.1295,-0.1371,-0.1439,-0.1499,-0.1532,-0.1575,-0.1587,-0.1573,-0.1557,-0.147,-0.1408,-0.1327,-0.1219,-0.124,-0.1121,-0.1096,-0.1144,-0.1144,-0.1095,-0.109,-0.1141,-0.1141,-0.1141,-0.1141,0,-0.1005,-0.1097,-0.1178,-0.1312,-0.1356,-0.1401,-0.1519,-0.1551,-0.1614,-0.1627,-0.1634,-0.1615,-0.1537,-0.1448,-0.1332,-0.1253,-0.1154,-0.1114,-0.1196,-0.1175,-0.1062,-0.1062,-0.1037,-0.1035,-0.1034,-0.1033,-0.1032,0,-0.0973,-0.1015,-0.1161,-0.12,-0.1264,-0.1358,-0.1413,-0.1535,-0.1568,-0.1639,-0.1628,-0.1599,-0.1556,-0.1364,-0.1292,-0.116,-0.1124,-0.1092,-0.1056,-0.107,-0.1049,-0.1052,-0.1054,-0.103,-0.1029,-0.1029,-0.1028,0,-0.0896,-0.0953,-0.1009,-0.1086,-0.1166,-0.124,-0.134,-0.1374,-0.1494,-0.1603,-0.1574,-0.1514,-0.143,-0.1313,-0.1225,-0.1124,-0.112,-0.1078,-0.1079,-0.1045,-0.1061,-0.1043,-0.1046,-0.1024,-0.1025,-0.1025,-0.1025,0,-0.081,-0.0816,-0.0878,-0.0921,-0.1009,-0.104,-0.1148,-0.1219,-0.1289,-0.1433,-0.1424,-0.1391,-0.1428,-0.1296,-0.1209,-0.1117,-0.108,-0.1028,-0.1031,-0.1036,-0.1029,-0.105,-0.0993,0,0,0,0,0,-0.0711,-0.0675,-0.0705,-0.0741,-0.082,-0.0856,-0.1036,-0.1157,-0.1336,-0.1295,-0.1366,-0.1294,-0.1196,-0.1184,-0.107,-0.1148,-0.1041,-0.1013,-0.0974,-0.0998,-0.1004,-0.099,0,0,0,0,0,0,-0.0634,-0.0637,-0.0629,-0.0545,-0.0535,-0.0607,-0.0707,-0.0861,-0.0876,-0.1072,-0.1022,-0.1186,-0.1088,-0.1186,-0.1012,-0.101,-0.0959,-0.1039,-0.1036,-0.0995,-0.1,-0.1004,-0.0993,0,0,0,0,0]},{"header":{"parameterUnit":"m.s-1","parameterCategory":2,"la1":30.2991,"la2":30.254,"lo1":-89.0895,"lo2":-89.0444,"dy":0.0017,"dx":0.0017,"nx":28,"ny":28,"refTime":"2024-03-25T09:00:00:Z","depth":"4","parameterNumber":3,"parameterNumberName":"V-component_of_CURRENTS"},"data":[0,0,0,0,0,0,0,0,0,0,0,0,0,0,0,0,0,0,0,0,0,0,0,0,0,0,0,0,0,0,0,0,0,0,0,0,0,0,0,0,0,0,0,0,0,0,0,0,0,0,0,0,0,0,0,0,0,0,-0.0498,-0.0498,0,-0.0476,-0.0476,-0.0475,-0.0486,-0.0487,-0.0488,-0.0488,-0.0477,-0.0476,-0.0475,0,0,0,0,0,0,0,0,0,0,0,0,0,-0.0516,-0.0516,-0.0498,-0.0498,-0.0498,-0.0476,-0.0476,-0.0475,-0.0486,-0.0487,-0.0488,-0.0489,-0.0477,-0.0476,-0.0475,0,0,0,0,0,0,0,0,0,0,0,0,0,-0.0502,-0.0516,-0.0498,-0.0501,-0.0501,-0.0476,-0.0476,-0.0475,-0.0486,-0.0487,-0.0488,-0.0489,-0.0478,-0.0476,-0.0475,-0.0446,0,0,-0.0471,-0.047,0,0,0,0,0,0,0,0,-0.0503,-0.0501,-0.0501,-0.0501,-0.0501,-0.0486,-0.0478,-0.0466,-0.0486,-0.0491,-0.0488,-0.0489,-0.0481,-0.0479,-0.0471,-0.0446,-0.0445,-0.0471,-0.047,-0.0469,-0.0469,0,0,0,0,0,0,0,-0.0504,-0.0502,-0.0488,-0.0501,-0.0501,-0.0493,-0.0492,-0.0476,-0.048,-0.049,-0.0491,-0.049,-0.0481,-0.0473,-0.0471,-0.0445,-0.0471,-0.0469,-0.0469,-0.0468,-0.0384,-0.0383,0,0,0,0,0,0,-0.0509,-0.0503,-0.0489,-0.0488,-0.0506,-0.0492,-0.0491,-0.0489,-0.048,-0.048,-0.049,-0.0491,-0.0474,-0.0473,-0.0471,-0.0421,-0.0469,-0.0468,-0.0467,-0.0385,-0.0384,-0.0382,0,0,0,0,0,0,-0.051,-0.0508,-0.049,-0.0496,-0.0493,-0.0491,-0.0488,-0.0488,-0.0488,-0.0479,-0.0479,-0.0491,-0.0475,-0.0473,-0.0449,-0.0422,-0.0467,-0.0466,-0.0387,-0.0385,-0.0383,-0.0332,0,0,0,0,0,0,-0.051,-0.0508,-0.0514,-0.0496,-0.0493,-0.0476,-0.0487,-0.0487,-0.0486,-0.0487,-0.048,-0.048,-0.0476,-0.0451,-0.0448,-0.0421,-0.0465,-0.0389,-0.0386,-0.0384,-0.0336,-0.0329,-0.0323,0,0,0,0,0,-0.0511,-0.0515,-0.0514,-0.0513,-0.0499,-0.0476,-0.0473,-0.0474,-0.0485,-0.0479,-0.0468,-0.048,-0.0432,-0.0449,-0.0445,-0.0417,-0.039,-0.0387,-0.0384,-0.0339,-0.033,-0.0323,0,0,0,0,0,0,-0.0529,-0.0515,-0.0515,-0.0515,-0.0497,-0.0479,-0.0478,-0.0475,-0.0462,-0.0467,-0.0462,-0.0459,-0.0428,-0.0429,-0.0447,-0.0385,-0.0413,-0.0409,-0.038,-0.0372,-0.0366,-0.0365,-0.0464,0,0,0,0,0,-0.0534,-0.0533,-0.0512,-0.0514,-0.0505,-0.0491,-0.0485,-0.048,-0.0465,-0.0461,-0.0451,-0.0436,-0.0409,-0.0398,-0.0381,-0.0346,-0.0342,-0.0326,-0.0319,-0.0314,-0.031,-0.0272,-0.0262,-0.0372,-0.0372,-0.0372,0,0,-0.0545,-0.0535,-0.0538,-0.0517,-0.0506,-0.0485,-0.049,-0.0478,-0.0455,-0.046,-0.0431,-0.0416,-0.0396,-0.0355,-0.0341,-0.0354,-0.028,-0.031,-0.0305,-0.0305,-0.0268,-0.0257,-0.0248,-0.037,-0.037,-0.0371,0,0,-0.0555,-0.0552,-0.055,-0.0529,-0.0508,-0.049,-0.0486,-0.0461,-0.0446,-0.0412,-0.0403,-0.0367,-0.0342,-0.0306,-0.0289,-0.0235,-0.0249,-0.0237,-0.02,-0.0163,-0.0153,-0.0145,-0.0125,-0.0116,-0.0231,-0.0231,-0.0231,0,-0.0572,-0.0563,-0.0546,-0.0528,-0.0513,-0.0491,-0.0474,-0.0445,-0.0413,-0.0389,-0.0401,-0.0326,-0.0311,-0.0241,-0.0221,-0.0219,-0.0213,-0.0231,-0.0154,-0.0146,-0.0138,-0.012,-0.011,-0.0228,-0.0228,-0.0229,-0.0229,0,-0.057,-0.0563,-0.0557,-0.0526,-0.05,-0.0485,-0.0438,-0.041,-0.0391,-0.0358,-0.0294,-0.0259,-0.0217,-0.0198,-0.0193,-0.0124,-0.0143,-0.0153,-0.0175,-0.0124,-0.0108,-0.0099,-0.0224,-0.0225,-0.0226,-0.0227,0,0,-0.0613,-0.0569,-0.0569,-0.0556,-0.05,-0.0483,-0.0426,-0.0369,-0.0335,-0.0286,-0.0234,-0.0165,-0.0148,-0.0126,-0.0105,-0.0065,-0.0003,-0.0087,-0.0087,-0.0071,0.0065,0.0027,0.0033,-0.0005,-0.0003,-0.0002,0.0055,0,-0.0623,-0.061,-0.0567,-0.054,-0.0529,-0.0469,-0.0419,-0.0358,-0.0306,-0.0247,-0.018,-0.013,-0.0118,-0.0099,-0.0049,-0.0017,0.0024,-0.0018,0.0015,0.0016,-0.0026,0.0043,0.0004,0.0061,0.0063,0.0065,0.0066,0,-0.0634,-0.0627,-0.0614,-0.0556,-0.0542,-0.0512,-0.0433,-0.0383,-0.0278,-0.0233,-0.0154,-0.0109,-0.0019,-0.0035,0.0067,0.0035,0.0054,0.0076,0.0079,0.0031,-0.0004,0.0,0.0083,0.0081,0.008,0.0079,0.0078,0,-0.0693,-0.0652,-0.065,-0.0632,-0.0564,-0.0535,-0.0492,-0.039,-0.0345,-0.023,-0.0187,-0.0074,-0.0028,0.0033,0.0091,0.0077,0.0179,0.0165,0.0154,0.0151,0.0142,0.0133,0.023,0.023,0.023,0.023,0.023,0,-0.0719,-0.0717,-0.0685,-0.0687,-0.0676,-0.0594,-0.0555,-0.0485,-0.0381,-0.0326,-0.0198,-0.0133,-0.0012,0.0063,0.0106,0.0163,0.0195,0.0176,0.0173,0.0162,0.0154,0.0148,0.0138,0.0232,0.0231,0.0231,0.0231,0,-0.0775,-0.0757,-0.0762,-0.0719,-0.071,-0.0705,-0.0628,-0.0596,-0.0473,-0.0397,-0.0361,-0.0178,-0.0066,0.004,0.0145,0.0172,0.0231,0.0234,0.0215,0.0206,0.0173,0.0165,0.0243,0.0243,0.0242,0.0242,0.0241,0,-0.0796,-0.0811,-0.0819,-0.0847,-0.0834,-0.0815,-0.0805,-0.0678,-0.0629,-0.0431,-0.0402,-0.0242,-0.0131,0.0013,0.0119,0.022,0.0216,0.0246,0.0222,0.0191,0.018,0.0173,0.0165,0.024,0.024,0.024,0.024,0,-0.0841,-0.0858,-0.0873,-0.0947,-0.0964,-0.0958,-0.0918,-0.0884,-0.0721,-0.0614,-0.043,-0.0287,-0.0153,-0.0007,0.0077,0.0143,0.0236,0.024,0.0242,0.022,0.0188,0.0176,0.017,0.0238,0.0238,0.0238,0.0239,0,-0.0882,-0.0921,-0.0969,-0.1019,-0.1065,-0.1073,-0.1038,-0.0943,-0.0856,-0.0611,-0.0564,-0.0346,-0.0197,-0.0048,0.0027,0.01,0.0109,0.0113,0.0121,0.0124,0.007,0.0011,0.002,0,0,0,0,0,-0.0908,-0.0962,-0.1035,-0.1074,-0.1124,-0.1128,-0.1097,-0.1036,-0.088,-0.0775,-0.065,-0.0512,-0.0297,-0.0171,-0.0111,-0.0032,0.0081,0.0038,0.0077,0.0227,0.023,0.0183,0,0,0,0,0,0,-0.0932,-0.1008,-0.1044,-0.1108,-0.1136,-0.1158,-0.114,-0.1042,-0.0951,-0.0786,-0.0673,-0.0514,-0.0322,-0.0333,-0.0108,-0.0074,-0.0049,0.017,0.0171,0.0226,0.0228,0.023,0.0183,0,0,0,0,0]}]]